Regional Weather Roundup
Issued by NWS

Home | Current Version | Previous Version | Text Only | Print | Product List | Glossary On
Versions: 1 2 3 4 5 6 7 8 9 10 11 12 13 14 15 16 17 18 19 20 21 22 23 24 25 26 27 28 29 30 31 32 33 34 35 36 37 38 39 40 41 42 43 44 45 46 47 48 49 50
000
ASUS43 KOAX 291102
RWRNE

WEATHER ROUNDUP FOR NEBRASKA
NATIONAL WEATHER SERVICE OMAHA NE
600 AM CDT FRI JUL 29 2016

NOTES: SATELLITE DATA IS BEING USED TO AUGMENT CLOUD COVER ABOVE
       12000 FEET.
       "FAIR" INDICATES FEW OR NO CLOUDS BELOW 12,000 FEET WITH NO
       SIGNIFICANT WEATHER AND/OR OBSTRUCTIONS TO VISIBILITY.

  * THESE STATIONS DO NOT REPORT WEATHER SUCH AS RAIN...SNOW OR FOG.

NEZ001>004-019>022-054>056-291200-
NEBRASKA PANHANDLE

CITY           SKY/WX    TMP DP  RH WIND       PRES   REMARKS
SCOTTSBLUFF    PTCLDY    59  56  89 CALM      30.16S
ALLIANCE       PTCLDY    54  53  97 NE5       30.14F
CHADRON        CLEAR     54  53  97 W3        30.13F
SIDNEY         CLEAR     56  55  97 W6        30.18F
$$

NEZ057>060-069>072-079>082-291200-
SOUTHWEST NEBRASKA

CITY           SKY/WX    TMP DP  RH WIND       PRES   REMARKS
NORTH PLATTE   FOG       59  58  96 CALM      30.11R VSB 1/4
IMPERIAL       CLEAR     62  60  93 NW6       30.12S
LEXINGTON      CLEAR     59  58  95 NW3       30.08S
MCCOOK         CLEAR     58  57  97 W5        30.08S
OGALLALA       CLEAR     59  57  93 SW5       30.12S FOG
$$

NEZ005>010-023>029-035>040-094-291200-
NORTH CENTRAL NEBRASKA

CITY           SKY/WX    TMP DP  RH WIND       PRES   REMARKS
AINSWORTH      HVY RAIN  61  61 100 N5        30.12S
BROKEN BOW     PTCLDY    60  59  96 CALM      30.08S
O`NEILL        CLOUDY    64  63  94 NE5       30.09R
ORD            CLEAR     61  59  93 NW3       30.06R
THEDFORD       FOG       58  58  99 NE3       30.13R VSB 1/2
$$

NEZ041-046>049-061>064-073>077-083>087-291200-
SOUTH CENTRAL NEBRASKA

CITY           SKY/WX    TMP DP  RH WIND       PRES   REMARKS
GRAND ISLAND   CLOUDY    65  63  93 N5        30.04S
AURORA         CLEAR     64  64  98 N6        30.02S
HASTINGS       CLOUDY    64  63  96 CALM      30.05R
HEBRON         MOCLDY    64  62  94 CALM      30.02R
HOLDREGE       PTCLDY    61  60  96 CALM      30.07S
KEARNEY *      CLEAR     63   7  11 N6        30.07S
YORK           CLOUDY    64  63  94 N3        30.02S
$$

NEZ011>018-030>034-042>045-291200-
NORTHEAST NEBRASKA

CITY           SKY/WX    TMP DP  RH WIND       PRES   REMARKS
NORFOLK        CLOUDY    66  61  84 N7        30.04S
ALBION         CLOUDY    64  61  91 NW5       30.06R
BLAIR          CLOUDY    66  64  92 N7        30.01S
FREMONT        CLOUDY    67  64  90 NE3       30.02R
TEKAMAH        CLOUDY    65  62  90 N8        30.02R
WAYNE          MOCLDY    61  60  97 N3        30.05S
$$

NEZ050>053-065>068-078-088>093-291200-
SOUTHEAST NEBRASKA

CITY           SKY/WX    TMP DP  RH WIND       PRES   REMARKS
LINCOLN        CLOUDY    67  65  93 CALM      30.01S
OMAHA EPPLEY   CLOUDY    67  63  87 N5        30.01R
BEATRICE       CLEAR     62  60  94 CALM      30.00S
FALLS CITY     CLOUDY    67  65  93 N5        29.98R
NEBRASKA CITY  CLOUDY    65  65 100 CALM      30.00R
PLATTSMOUTH    CLOUDY    67  65  94 N3        29.99F
$$

NEZ044-045-051>053-067-291200-
OMAHA AREA

CITY           SKY/WX    TMP DP  RH WIND       PRES   REMARKS
OMAHA EPPLEY   CLOUDY    67  63  87 N5        30.01R
BLAIR          CLOUDY    66  64  92 N7        30.01S
FREMONT        CLOUDY    67  64  90 NE3       30.02R
MILLARD        LGT RAIN  70  65  85 NE3       30.01R
OFFUTT AFB     CLOUDY    68  64  88 NE6       30.00R
PLATTSMOUTH    CLOUDY    67  65  94 N3        29.99F
WAHOO          CLOUDY    68  66  93 N3        30.01R
$$




USA.gov is the U.S. government's official web portal to all federal, state and local government web resources and services.